| time (UTC) | temp F | wind direction | speed MPH | gust MPH | rain 1hr in | rain 24hr in | rain mn in | humidity % | barometer mb |
| 20260504081531 | 55 | 152 | 1.0 | 4.0 | 0.00 | 0.00 | 0.00 | 78 | 1015.6 |
| 20260504081034 | 55 | 148 | 1.0 | 2.0 | 0.00 | 0.00 | 0.00 | 78 | 1015.5 |
| 20260504080531 | 55 | 149 | 0.0 | 4.0 | 0.00 | 0.00 | 0.00 | 78 | 1015.5 |
| 20260504050518 | 58 | 153 | 6.0 | 10.0 | 0.00 | 0.00 | 0.00 | 72 | 1015.1 |
| 20260504050017 | 58 | 159 | 1.0 | 6.0 | 0.00 | 0.00 | 0.00 | 72 | 1014.9 |
| 20260504045515 | 59 | 150 | 1.0 | 8.0 | 0.00 | 0.00 | 0.00 | 71 | 1014.8 |
| 20260504045015 | 59 | 155 | 5.0 | 9.0 | 0.00 | 0.00 | 0.00 | 71 | 1014.7 |
| 20260504044515 | 59 | 157 | 6.0 | 9.0 | 0.00 | 0.00 | 0.00 | 71 | 1014.9 |
| 20260504044016 | 59 | 152 | 5.0 | 7.0 | 0.00 | 0.00 | 0.00 | 71 | 1014.8 |
| 20260504043522 | 59 | 146 | 4.0 | 7.0 | 0.00 | 0.00 | 0.00 | 71 | 1014.7 |
| 20260504043014 | 59 | 149 | 5.0 | 7.0 | 0.00 | 0.00 | 0.00 | 71 | 1014.7 |
| 20260504042514 | 59 | 146 | 4.0 | 8.0 | 0.00 | 0.00 | 0.00 | 70 | 1014.6 |
| 20260504042013 | 60 | 148 | 1.0 | 7.0 | 0.00 | 0.00 | 0.00 | 70 | 1014.6 |
| 20260504041612 | 60 | 153 | 0.0 | 6.0 | 0.00 | 0.00 | 0.00 | 70 | 1014.6 |
| 20260504041012 | 60 | 154 | 4.0 | 7.0 | 0.00 | 0.00 | 0.00 | 69 | 1014.6 |
| 20260504040512 | 60 | 154 | 4.0 | 6.0 | 0.00 | 0.00 | 0.00 | 69 | 1014.5 |
| 20260504040014 | 60 | 157 | 2.0 | 5.0 | 0.00 | 0.00 | 0.00 | 70 | 1014.2 |
| 20260504035511 | 61 | 184 | 0.0 | 7.0 | 0.00 | 0.00 | 0.00 | 69 | 1014.2 |
| 20260504035010 | 61 | 184 | 4.0 | 8.0 | 0.00 | 0.00 | 0.00 | 68 | 1014.2 |
| 20260504034517 | 61 | 184 | 3.0 | 9.0 | 0.00 | 0.00 | 0.00 | 68 | 1014.2 |
| 20260504034010 | 61 | 178 | 3.0 | 11.0 | 0.00 | 0.00 | 0.00 | 68 | 1014.0 |
| 20260504033511 | 61 | 194 | 5.0 | 11.0 | 0.00 | 0.00 | 0.00 | 68 | 1014.0 |
| 20260504033010 | 61 | 168 | 4.0 | 9.0 | 0.00 | 0.00 | 0.00 | 68 | 1013.7 |
| 20260504032510 | 61 | 190 | 4.0 | 10.0 | 0.00 | 0.00 | 0.00 | 68 | 1013.7 |
| 20260504032009 | 62 | 185 | 5.0 | 10.0 | 0.00 | 0.00 | 0.00 | 67 | 1013.7 |
| 20260504031509 | 62 | 181 | 4.0 | 9.0 | 0.00 | 0.00 | 0.00 | 67 | 1013.6 |
| 20260504031010 | 62 | 152 | 5.0 | 9.0 | 0.00 | 0.00 | 0.00 | 67 | 1013.6 |
| 20260504030508 | 62 | 184 | 5.0 | 9.0 | 0.00 | 0.00 | 0.00 | 67 | 1013.4 |
| 20260504030008 | 62 | 209 | 4.0 | 9.0 | 0.00 | 0.00 | 0.00 | 67 | 1013.4 |
| 20260504025508 | 62 | 208 | 4.0 | 9.0 | 0.00 | 0.00 | 0.00 | 66 | 1013.3 |
| 20260504025009 | 63 | 210 | 6.0 | 9.0 | 0.00 | 0.00 | 0.00 | 66 | 1013.3 |
| 20260504024510 | 63 | 221 | 6.0 | 9.0 | 0.00 | 0.00 | 0.00 | 66 | 1013.3 |
| 20260504024007 | 63 | 207 | 6.0 | 8.0 | 0.00 | 0.00 | 0.00 | 66 | 1013.2 |
| 20260504023507 | 63 | 190 | 3.0 | 7.0 | 0.00 | 0.00 | 0.00 | 67 | 1013.1 |
| 20260504023008 | 63 | 176 | 3.0 | 6.0 | 0.00 | 0.00 | 0.00 | 66 | 1013.0 |
| 20260504022506 | 63 | 207 | 1.0 | 8.0 | 0.00 | 0.00 | 0.00 | 66 | 1013.1 |
| 20260504022007 | 63 | 209 | 6.0 | 8.0 | 0.00 | 0.00 | 0.00 | 65 | 1013.0 |
| 20260504021507 | 63 | 221 | 3.0 | 7.0 | 0.00 | 0.00 | 0.00 | 66 | 1013.0 |
| 20260504021005 | 63 | 225 | 3.0 | 8.0 | 0.00 | 0.00 | 0.00 | 66 | 1013.1 |
| 20260504020506 | 63 | 227 | 4.0 | 8.0 | 0.00 | 0.00 | 0.00 | 65 | 1013.1 |
| 20260504020005 | 63 | 215 | 5.0 | 8.0 | 0.00 | 0.00 | 0.00 | 66 | 1013.0 |
| 20260504015505 | 64 | 169 | 3.0 | 6.0 | 0.00 | 0.00 | 0.00 | 67 | 1013.0 |
| 20260504015008 | 64 | 236 | 0.0 | 6.0 | 0.00 | 0.00 | 0.00 | 67 | 1013.0 |
| 20260504014507 | 64 | 189 | 2.0 | 5.0 | 0.00 | 0.00 | 0.00 | 68 | 1012.9 |
| 20260504014008 | 64 | 192 | 2.0 | 5.0 | 0.00 | 0.00 | 0.00 | 66 | 1012.9 |
| 20260504013506 | 64 | 192 | 1.0 | 8.0 | 0.00 | 0.00 | 0.00 | 66 | 1013.0 |
| 20260504013005 | 64 | 180 | 4.0 | 9.0 | 0.00 | 0.00 | 0.00 | 66 | 1012.8 |
| 20260504012505 | 64 | 184 | 6.0 | 8.0 | 0.00 | 0.00 | 0.00 | 66 | 1012.9 |
| 20260504012006 | 64 | 192 | 2.0 | 6.0 | 0.00 | 0.00 | 0.00 | 66 | 1012.9 |
| 20260504011504 | 64 | 159 | 3.0 | 8.0 | 0.00 | 0.00 | 0.00 | 66 | 1012.7 |
| 20260504011004 | 64 | 166 | 4.0 | 9.0 | 0.00 | 0.00 | 0.00 | 66 | 1013.0 |
| 20260504010502 | 64 | 177 | 2.0 | 9.0 | 0.00 | 0.00 | 0.00 | 67 | 1013.0 |
| 20260504010002 | 64 | 194 | 4.0 | 8.0 | 0.00 | 0.00 | 0.00 | 67 | 1013.1 |
| 20260504005502 | 64 | 173 | 4.0 | 8.0 | 0.00 | 0.00 | 0.00 | 67 | 1013.1 |
| 20260504005001 | 63 | 182 | 1.0 | 7.0 | 0.00 | 0.00 | 0.00 | 68 | 1013.1 |
| 20260504004500 | 63 | 140 | 5.0 | 7.0 | 0.00 | 0.00 | 0.00 | 69 | 1013.1 |
| 20260504004000 | 62 | 156 | 4.0 | 7.0 | 0.00 | 0.00 | 0.00 | 68 | 1013.1 |
| 20260504003500 | 62 | 194 | 4.0 | 8.0 | 0.00 | 0.00 | 0.00 | 69 | 1013.1 |
| 20260504003100 | 62 | 194 | 6.0 | 8.0 | 0.00 | 0.00 | 0.00 | 68 | 1012.9 |
| 20260504002600 | 62 | 186 | 5.0 | 9.0 | 0.00 | 0.00 | 0.00 | 69 | 1012.9 |
| 20260504002101 | 62 | 199 | 6.0 | 10.0 | 0.00 | 0.00 | 0.00 | 70 | 1012.9 |
| 20260504001600 | 62 | 198 | 6.0 | 10.0 | 0.00 | 0.00 | 0.00 | 70 | 1012.9 |
| 20260504001100 | 62 | 207 | 6.0 | 9.0 | 0.00 | 0.00 | 0.00 | 69 | 1012.9 |
| 20260504000559 | 62 | 173 | 3.0 | 8.0 | 0.00 | 0.00 | 0.00 | 71 | 1012.9 |
| 20260504000137 | 62 | 218 | 5.0 | 10.0 | 0.00 | 0.00 | 0.00 | 69 | 1013.0 |
| 20260503235600 | 63 | 217 | 7.0 | 9.0 | 0.00 | 0.00 | 0.00 | 68 | 1013.1 |
| 20260503235058 | 63 | 205 | 6.0 | 8.0 | 0.00 | 0.00 | 0.00 | 68 | 1013.1 |
| 20260503234603 | 63 | 176 | 5.0 | 8.0 | 0.00 | 0.00 | 0.00 | 69 | 1013.1 |
| 20260503234058 | 63 | 188 | 3.0 | 6.0 | 0.00 | 0.00 | 0.00 | 68 | 1013.2 |
| 20260503233558 | 63 | 186 | 0.0 | 6.0 | 0.00 | 0.00 | 0.00 | 69 | 1013.3 |
| 20260503233057 | 63 | 157 | 3.0 | 6.0 | 0.00 | 0.00 | 0.00 | 68 | 1013.4 |
| 20260503232557 | 63 | 157 | 2.0 | 7.0 | 0.00 | 0.00 | 0.00 | 67 | 1013.5 |
| 20260503232057 | 63 | 196 | 3.0 | 7.0 | 0.00 | 0.00 | 0.00 | 69 | 1013.4 |
| 20260503231557 | 63 | 160 | 2.0 | 8.0 | 0.00 | 0.00 | 0.00 | 68 | 1013.5 |
| 20260503231057 | 63 | 168 | 5.0 | 9.0 | 0.00 | 0.00 | 0.00 | 69 | 1013.6 |
| 20260503230557 | 63 | 150 | 5.0 | 9.0 | 0.00 | 0.00 | 0.00 | 68 | 1013.6 |
| 20260503230058 | 63 | 103 | 0.0 | 8.0 | 0.00 | 0.00 | 0.00 | 69 | 1013.5 |
| 20260503225556 | 63 | 105 | 2.0 | 6.0 | 0.00 | 0.00 | 0.00 | 68 | 1013.5 |
| 20260503225056 | 63 | 153 | 2.0 | 7.0 | 0.00 | 0.00 | 0.00 | 68 | 1013.7 |
| 20260503224555 | 63 | 169 | 3.0 | 7.0 | 0.00 | 0.00 | 0.00 | 69 | 1013.5 |
| 20260503224055 | 62 | 168 | 2.0 | 8.0 | 0.00 | 0.00 | 0.00 | 69 | 1013.6 |
| 20260503223555 | 62 | 163 | 3.0 | 8.0 | 0.00 | 0.00 | 0.00 | 69 | 1013.7 |
| 20260503223055 | 62 | 163 | 3.0 | 10.0 | 0.00 | 0.00 | 0.00 | 69 | 1013.7 |
| 20260503222557 | 62 | 161 | 6.0 | 10.0 | 0.00 | 0.00 | 0.00 | 68 | 1013.6 |
| 20260503222054 | 62 | 193 | 4.0 | 9.0 | 0.00 | 0.00 | 0.00 | 69 | 1013.5 |
| 20260503221554 | 62 | 112 | 4.0 | 10.0 | 0.00 | 0.00 | 0.00 | 69 | 1013.6 |
| 20260503221058 | 62 | 188 | 5.0 | 10.0 | 0.00 | 0.00 | 0.00 | 69 | 1013.7 |
| 20260503220554 | 62 | 164 | 5.0 | 9.0 | 0.00 | 0.00 | 0.00 | 70 | 1013.7 |
| 20260503220053 | 61 | 160 | 4.0 | 8.0 | 0.00 | 0.00 | 0.00 | 71 | 1013.7 |
| 20260503215554 | 61 | 153 | 3.0 | 9.0 | 0.00 | 0.00 | 0.00 | 71 | 1013.7 |
| 20260503215053 | 61 | 148 | 5.0 | 10.0 | 0.00 | 0.00 | 0.00 | 71 | 1013.7 |
| 20260503214552 | 61 | 154 | 7.0 | 11.0 | 0.00 | 0.00 | 0.00 | 71 | 1013.6 |
| 20260503214056 | 61 | 140 | 7.0 | 11.0 | 0.00 | 0.00 | 0.00 | 70 | 1013.6 |
| 20260503213554 | 61 | 175 | 6.0 | 10.0 | 0.00 | 0.00 | 0.00 | 70 | 1013.6 |
| 20260503213052 | 61 | 160 | 7.0 | 11.0 | 0.00 | 0.00 | 0.00 | 70 | 1013.6 |
| 20260503212552 | 61 | 161 | 6.0 | 11.0 | 0.00 | 0.00 | 0.00 | 71 | 1013.5 |
| 20260503212052 | 61 | 173 | 8.0 | 12.0 | 0.00 | 0.00 | 0.00 | 70 | 1013.5 |
| 20260503211551 | 61 | 147 | 8.0 | 14.0 | 0.00 | 0.00 | 0.00 | 70 | 1013.6 |
| 20260503211052 | 61 | 155 | 9.0 | 14.0 | 0.00 | 0.00 | 0.00 | 70 | 1013.5 |
| 20260503210551 | 61 | 218 | 9.0 | 14.0 | 0.00 | 0.00 | 0.00 | 70 | 1013.6 |
| 20260503210051 | 61 | 178 | 6.0 | 15.0 | 0.00 | 0.00 | 0.00 | 70 | 1013.7 |
| 20260503205551 | 61 | 178 | 9.0 | 15.0 | 0.00 | 0.00 | 0.00 | 70 | 1013.7 |
| 20260503205053 | 61 | 190 | 8.0 | 16.0 | 0.00 | 0.00 | 0.00 | 70 | 1013.7 |
| 20260503204554 | 62 | 198 | 9.0 | 18.0 | 0.00 | 0.00 | 0.00 | 70 | 1013.7 |
| 20260503204050 | 62 | 184 | 10.0 | 18.0 | 0.00 | 0.00 | 0.00 | 69 | 1013.6 |
| 20260503203554 | 62 | 211 | 7.0 | 19.0 | 0.00 | 0.00 | 0.00 | 70 | 1013.6 |
| 20260503203050 | 62 | 193 | 11.0 | 19.0 | 0.00 | 0.00 | 0.00 | 69 | 1013.5 |
| 20260503202550 | 62 | 197 | 9.0 | 13.0 | 0.00 | 0.00 | 0.00 | 68 | 1013.6 |
| 20260503202053 | 62 | 192 | 8.0 | 16.0 | 0.00 | 0.00 | 0.00 | 69 | 1013.4 |
| 20260503201549 | 62 | 186 | 9.0 | 15.0 | 0.00 | 0.00 | 0.00 | 70 | 1013.5 |
| 20260503201051 | 62 | 199 | 9.0 | 16.0 | 0.00 | 0.00 | 0.00 | 69 | 1013.5 |
| 20260503200548 | 63 | 150 | 8.0 | 16.0 | 0.00 | 0.00 | 0.00 | 69 | 1013.4 |
| 20260503200047 | 62 | 136 | 9.0 | 15.0 | 0.00 | 0.00 | 0.00 | 71 | 1013.5 |
| 20260503195546 | 62 | 147 | 8.0 | 15.0 | 0.00 | 0.00 | 0.00 | 70 | 1013.6 |
| 20260503195046 | 62 | 188 | 10.0 | 15.0 | 0.00 | 0.00 | 0.00 | 71 | 1013.6 |
| 20260503194547 | 62 | 193 | 8.0 | 15.0 | 0.00 | 0.00 | 0.00 | 71 | 1013.7 |
| 20260503194044 | 61 | 150 | 7.0 | 15.0 | 0.00 | 0.00 | 0.00 | 73 | 1013.7 |
| 20260503193543 | 60 | 154 | 8.0 | 13.0 | 0.00 | 0.00 | 0.00 | 75 | 1013.7 |
| 20260503193042 | 59 | 202 | 6.0 | 14.0 | 0.00 | 0.00 | 0.00 | 74 | 1013.7 |
| 20260503192541 | 59 | 194 | 9.0 | 14.0 | 0.00 | 0.00 | 0.00 | 76 | 1013.9 |
| 20260503192041 | 58 | 175 | 7.0 | 14.0 | 0.00 | 0.00 | 0.00 | 76 | 1013.9 |
| 20260503191541 | 58 | 174 | 8.0 | 14.0 | 0.00 | 0.00 | 0.00 | 75 | 1013.9 |
| 20260503191041 | 59 | 180 | 8.0 | 19.0 | 0.00 | 0.00 | 0.00 | 75 | 1013.9 |
| 20260503190540 | 59 | 202 | 10.0 | 22.0 | 0.00 | 0.00 | 0.00 | 76 | 1013.9 |
| 20260503190040 | 59 | 203 | 10.0 | 22.0 | 0.00 | 0.00 | 0.00 | 77 | 1013.9 |
| 20260503185540 | 59 | 192 | 11.0 | 18.0 | 0.00 | 0.00 | 0.00 | 75 | 1014.0 |
| 20260503185040 | 59 | 185 | 9.0 | 13.0 | 0.00 | 0.00 | 0.00 | 76 | 1014.0 |
| 20260503184557 | 59 | 194 | 9.0 | 15.0 | 0.00 | 0.00 | 0.00 | 77 | 1014.0 |
| 20260503184040 | 58 | 208 | 10.0 | 16.0 | 0.00 | 0.00 | 0.00 | 78 | 1014.0 |
| 20260503183540 | 58 | 200 | 11.0 | 16.0 | 0.00 | 0.00 | 0.00 | 76 | 1014.1 |
| 20260503183042 | 58 | 192 | 8.0 | 20.0 | 0.00 | 0.00 | 0.00 | 76 | 1014.0 |
| 20260503182539 | 59 | 197 | 11.0 | 20.0 | 0.00 | 0.00 | 0.00 | 76 | 1014.0 |
| 20260503182038 | 59 | 211 | 11.0 | 19.0 | 0.00 | 0.00 | 0.00 | 76 | 1014.0 |
| 20260503181537 | 59 | 165 | 11.0 | 16.0 | 0.00 | 0.00 | 0.00 | 76 | 1013.9 |
| 20260503181036 | 58 | 192 | 8.0 | 14.0 | 0.00 | 0.00 | 0.00 | 78 | 1014.1 |
| 20260503180536 | 57 | 185 | 9.0 | 18.0 | 0.00 | 0.00 | 0.00 | 79 | 1014.1 |
| 20260503180037 | 57 | 163 | 9.0 | 18.0 | 0.00 | 0.00 | 0.00 | 79 | 1014.1 |
| 20260503175534 | 57 | 148 | 9.0 | 16.0 | 0.00 | 0.00 | 0.00 | 81 | 1014.2 |
| 20260503175037 | 57 | 164 | 8.0 | 16.0 | 0.00 | 0.00 | 0.00 | 82 | 1014.1 |
| 20260503174534 | 56 | 148 | 8.0 | 13.0 | 0.00 | 0.00 | 0.00 | 83 | 1013.9 |
| 20260503174034 | 56 | 163 | 6.0 | 12.0 | 0.00 | 0.00 | 0.00 | 85 | 1013.9 |
| 20260503173536 | 55 | 160 | 5.0 | 14.0 | 0.00 | 0.00 | 0.00 | 84 | 1013.9 |
| 20260503173036 | 55 | 194 | 7.0 | 14.0 | 0.00 | 0.00 | 0.00 | 84 | 1013.8 |
| 20260503172535 | 55 | 150 | 6.0 | 10.0 | 0.00 | 0.00 | 0.00 | 83 | 1013.8 |
| 20260503172035 | 55 | 190 | 5.0 | 14.0 | 0.00 | 0.00 | 0.00 | 82 | 1013.4 |
| 20260503171542 | 55 | 148 | 6.0 | 14.0 | 0.00 | 0.00 | 0.00 | 81 | 1013.9 |
| 20260503171031 | 55 | 157 | 6.0 | 15.0 | 0.00 | 0.00 | 0.00 | 81 | 1014.0 |
| 20260503170531 | 55 | 146 | 8.0 | 16.0 | 0.00 | 0.00 | 0.00 | 81 | 1014.0 |
| 20260503150517 | 53 | 141 | 8.0 | 13.0 | 0.00 | 0.00 | 0.00 | 84 | 1012.6 |
| 20260503131003 | 53 | 155 | 6.0 | 9.0 | 0.00 | 0.00 | 0.00 | 83 | 1011.1 |
| 20260503130503 | 53 | 165 | 4.0 | 8.0 | 0.00 | 0.00 | 0.00 | 82 | 1011.1 |
| 20260503110552 | 53 | 160 | 6.0 | 9.0 | 0.00 | 0.00 | 0.00 | 89 | 1010.9 |